Location: Bothwell
(42.3833°S, 147.0000°E)
Time: 05:54:42
(UTC+10:00)

UNISAT 6 - Visible Passes

Search period start: 25 September 2022 00:00
Search period end: 05 October 2022 01:00
Orbit: 605 x 684 km, 97.7° (Epoch: 24 September)

Date Brightness Start Highest point End Pass type
(mag) Time Alt. Az. Time Alt. Az. Time Alt. Az.
26 Sep ? 18:47:54 10° WNW 18:49:54 13° W 18:51:55 10° WSW visible
27 Sep ? 05:00:31 10° ESE 05:02:32 13° E 05:04:33 10° ENE visible
30 Sep ? 18:51:14 10° WNW 18:52:53 12° W 18:54:35 10° WSW visible
01 Oct ? 05:03:08 10° ESE 05:05:34 14° E 05:08:00 10° ENE visible
04 Oct ? 19:54:36 10° WNW 19:55:50 11° W 19:57:06 10° WSW visible
